COSMOS 1275 DEB, 13816

Orbit data source: Space-Track

COSMOS 1275 DEB, 13816 is space debris in LEO originally from a launch on Thu, 04 Jun 1981 UTC launched from the Plesetsk Missile And Space Complex (PKMTR). Debris objects in space refer to the collection of defunct objects orbiting the Earth. Examples of debris include non-operational satellites, rocket bodies, and fragments generated from explosions, collisions, or faulty payload assembly.

Loading next visibility...
Identifier
13816, 1981-053HL
Orbit
LEO
Country
Flag of CISCIS
Related business
Manufacturer
Unknown
Mission
Spacecraft
Bus & Motor
Unknown
Mass
Unknown
Launch date (UTC)
1981-06-04 (45 years ago)
Launch vehicle
Unknown
Launch site
Plesetsk Missile And Space Complex (PKMTR)
Object type
Payload
Rocket body
Debris
Shape & HBR
Unknown shape, 0.1 m
Radar Cross Section
Medium (>0.1 m² and <1 m²)

Expand to show TLE details & history
Last TLE update: 3 days ago

TLE from 3 days ago
0 COSMOS 1275 DEB
1 13816U 81053HL  26171.21592610  .00000776  00000-0  57801-3 0  9993
2 13816  82.9845  69.6394 0149802 174.4526 314.1288 13.88589878160703
Epoch: 2026-06-20T05:10Z
TLE epoch observation values (Epoch: 2026-06-20T05:10:56.015Z)
Latitude
52.20754°
Longitude
-105.60998°
Altitude
866.625 km
Speed
7.462 km/s
True Right ascension
16h 02m 13s
True Declination
52° 02' 36"
Sunlit
Object was in daylight at epoch
Visualization orbit readout
Latitude
Unknown
Longitude
Unknown
Altitude
Unknown
Speed
Unknown
Apparent Right ascension
Unknown
Apparent Declination
Unknown
Sunlit
N/A
Visualization observer readout
Local Sidereal Time
06:09:23
Azimuth
Unknown
Elevation
Unknown
Doppler factor
Unknown
Orbital elements
Apogee altitude
1,040.192 km
Perigee altitude
821.216 km
Semi-major axis
7,308.841 km
Eccentricity
0.01498
Inclination
82.9845°
RAAN
69.6394°
Arg. of periapsis
174.4526°
True anomaly
312.88049°
Mean anomaly
314.1288°
Eccentric anomaly
313.50627°
Mean motion
3.47352 °/min
Orbital period
103.64 mins
BSTAR
0.00057801
Loading maneuver chart data...
Computing Atmospheric mass density...
Loading historical data...
Loading historical data...
Loading historical data...
Loading historical data...
Loading historical data...
Loading historical data...
Loading historical data...

Documentation

Showing up to 5 results
|